Location: Blazny
(46.0612°N, 84.4033°W)
Time: 19:17:57
(UTC-04:00)

Envisat - Pass Details

Date: 21 September 2024
Orbit: 762 x 764 km, 98.3° (Epoch: 11 October)

Event Time Altitude Azimuth Distance (km) Brightness Sun altitude
Rises 06:19:49 0° 0° (N) 3,238 6.4 -11.9°
Reaches altitude 10° 06:22:45 10° 343° (NNW) 2,306 5.4 -11.4°
Maximum altitude 06:26:09 18° 300° (WNW) 1,789 4.5 -10.8°
Enters shadow 06:28:38 13° 267° (W) 2,076 4.6 -10.4°
